This is the latest recevied weather packets stored in our database for station/object 5B4APJ-13. If no packets are shown the sender has not sent any weather packets the latest 10 day(s).
| Time | Temp. | Humidity | Pressure | Rain* | Wind** | Luminosity | Snow |
|---|---|---|---|---|---|---|---|
| 1777865825 | 10.56° C | 82% | 1007.1 hPa | 1.78 mm | 3.58 m/s, 233° | 10 W/m² | - |
| 1777865524 | 10.56° C | 81% | 1007.3 hPa | 1.78 mm | 3.58 m/s, 190° | 5 W/m² | - |
| 1777865225 | 10.56° C | 79% | 1007.5 hPa | 2.03 mm | 3.13 m/s, 231° | 4 W/m² | - |
| 1777864925 | 10° C | 80% | 1007.3 hPa | 2.03 mm | 4.92 m/s, 239° | 18 W/m² | - |
| 1777864625 | 9.44° C | 83% | 1007.2 hPa | 2.03 mm | 4.02 m/s, 237° | 14 W/m² | - |
| 1777864325 | 10° C | 83% | 1007.3 hPa | 2.03 mm | 4.47 m/s, 239° | 4 W/m² | - |
| 1777864025 | 10.56° C | 82% | 1007.5 hPa | 1.02 mm | 5.81 m/s, 238° | 2 W/m² | - |
| 1777863725 | 10.56° C | 83% | 1007 hPa | 1.02 mm | 5.36 m/s, 228° | 3 W/m² | - |
| 1777863426 | 10.56° C | 83% | 1007.5 hPa | 0.51 mm | 6.26 m/s, 232° | 1 W/m² | - |
| 1777863125 | 10° C | 84% | 1007.6 hPa | 0.51 mm | 1.79 m/s, 177° | 1 W/m² | - |
| 1777862825 | 10.56° C | 84% | 1007.4 hPa | 0.51 mm | 1.79 m/s, 244° | 1 W/m² | - |
| 1777862526 | 10.56° C | 82% | 1007.6 hPa | 0.25 mm | 3.58 m/s, 254° | 0 W/m² | - |
| 1777862225 | 10.56° C | 81% | 1007.6 hPa | 0.25 mm | 3.13 m/s, 240° | 0 W/m² | - |
| 1777861925 | 11.11° C | 82% | 1008 hPa | 0.25 mm | 1.79 m/s, 142° | 0 W/m² | - |
| 1777861626 | 10.56° C | 82% | 1007.6 hPa | 0.25 mm | 4.02 m/s, 228° | 0 W/m² | - |
| 1777861325 | 10.56° C | 82% | 1007 hPa | 0.51 mm | 3.58 m/s, 244° | 0 W/m² | - |
| 1777861025 | 10.56° C | 83% | 1007 hPa | 0.51 mm | 4.47 m/s, 265° | 0 W/m² | - |
| 1777860725 | 10.56° C | 83% | 1007.1 hPa | 0.51 mm | 2.68 m/s, 248° | 0 W/m² | - |
| 1777860425 | 10.56° C | 84% | 1007.1 hPa | 0.51 mm | 0.89 m/s, 234° | 0 W/m² | - |
| 1777859826 | 10.56° C | 84% | 1007.4 hPa | 0.76 mm | 0.89 m/s, 238° | 0 W/m² | - |
| 1777859526 | 10° C | 84% | 1007.5 hPa | 0.76 mm | 3.58 m/s, 236° | 0 W/m² | - |
| 1777859226 | 10° C | 86% | 1007.4 hPa | 0.76 mm | 2.68 m/s, 0° | 0 W/m² | - |
| 1777858926 | 10.56° C | 85% | 1007.4 hPa | 0.76 mm | 2.24 m/s, 232° | 0 W/m² | - |
| 1777858626 | 10.56° C | 84% | 1007.8 hPa | 0.51 mm | 6.26 m/s, 223° | 0 W/m² | - |
| 1777858326 | 10.56° C | 84% | 1007.4 hPa | 0.76 mm | 5.81 m/s, 236° | 0 W/m² | - |
* Rain latest hour (hover to see other rain measurements)
** Current wind speed in m/s (hover to see current wind gust speed)